Weather in Korneshti

Moldova     47˚21′57″N   27˚59′51″E
temp.,
°C
wind,
m/s
gust,
m/s
humid.,
%
clouds,
%
prec.,
mm/h
press.,
hPa
HPBL,
m
28 november, sat
sat2823:00+2˚nw1165100 0.0 102122
02:00+1˚nnw116898 0.0 102022
05:00nw118073 0.0 101922
08:00+2˚nnw118381 0.0 101922
11:00+3˚wnw1178100 0.0 1020152
14:00+4˚nw1278100 0.0 1018303
17:00+3˚nnw2386100 0.0 101993
20:00+3˚n2388100 0.0 1020232
29 november, sun
sun2923:00+2˚wnw1190100 0.0 102026
02:00+1˚nnw1294100 0.0 102064
05:00+1˚nne1197100 0.7 102083
08:00+1˚ese1196100 0.8 102087
11:00+2˚se1195100 0.1 1021136
14:00+3˚ese2282100 0.1 1020352
17:00+2˚e118891 0.0 102141
20:00+1˚se129074 0.0 102246
30 november, mon
mon3023:00e118939 0.0 102223
02:00ne018756 0.0 102322
05:00n228978 0.0 102325
08:00−1˚n229689 0.0 102466
11:00+2˚n3581100 0.0 1025453
14:00+3˚n4672100 0.0 1025787
17:00+2˚n4772100 0.0 1026617
20:00nnw3880100 0.0 1027320
1 december, tue
tue123:00−1˚nnw378397 0.0 1028254
02:00−2˚nnw388665 0.0 1028258
05:00−3˚nnw37880 0.0 1027232
08:00−3˚nnw27870 0.0 1028210
11:00nnw46640 0.0 1027423
14:00+2˚n466010 0.0 1026622
17:00−1˚nne338070 0.0 102658
20:00−1˚n249581 0.1 1026234
2 december, wed
wed223:00−1˚nnw229996 0.4 102681
02:00−1˚nw229896 0.8 102598
05:00−1˚nw1197100 0.3 102573
08:00nnw1198100 0.7 102669
11:00+1˚n0098100 0.4 102646
14:00+1˚nne0098100 0.6 102488
17:00+1˚ene0194100 0.0 102522
20:00+1˚sw1186100 0.0 102522